CW8097 Weather Reports


time (UTC)temp
C
wind
direction
speed
KPH
gust
KPH
rain 1hr
cm
rain 24hr
cm
rain mn
cm
humidity
%
barometer
mb
20260504172204 25 245 17.7 27.4 0.00 0.00 0.00 39 1000.8
20260504171704 25 249 16.1 29.0 0.00 0.00 0.00 43 1000.9
20260504150702 20 199 12.9 19.3 0.00 0.00 0.00 53 1001.9
20260504140703 16 188 14.5 19.3 0.00 0.00 0.00 57 1002.4
20260504130703 13 189 9.7 12.9 0.00 0.00 0.00 61 1003.0
20260504130202 13 188 8.0 9.7 0.00 0.00 0.00 62 1003.0
20260504120203 11 162 0.0 0.0 0.00 0.00 0.00 67 1003.3
20260504110703 9 213 3.2 4.8 0.00 0.00 0.00 67 1003.6
20260504110202 10 209 4.8 9.7 0.00 0.00 0.00 66 1003.5
20260504081202 10 190 1.6 4.8 0.00 0.00 0.00 58 1005.2
20260504070203 11 195 4.8 9.7 0.00 0.00 0.00 51 1006.0
20260504060202 11 214 0.0 0.0 0.00 0.00 0.00 48 1006.6
20260504045203 13 214 0.0 0.0 0.00 0.00 0.00 43 1007.3
20260504043703 14 214 0.0 0.0 0.00 0.00 0.00 39 1007.4
20260504043203 14 214 0.0 0.0 0.00 0.00 0.00 39 1007.5
20260504041703 15 214 0.0 0.0 0.00 0.00 0.00 38 1007.6
20260504040702 15 214 0.0 0.0 0.00 0.00 0.00 37 1007.8
20260504040202 15 214 0.0 0.0 0.00 0.00 0.00 37 1007.9
20260504033703 15 214 1.6 1.6 0.00 0.00 0.00 37 1008.1
20260504033202 15 214 0.0 3.2 0.00 0.00 0.00 38 1008.2
20260504032702 15 214 0.0 1.6 0.00 0.00 0.00 37 1008.2
20260504031703 15 214 1.6 1.6 0.00 0.00 0.00 38 1008.4
20260504031202 15 214 1.6 1.6 0.00 0.00 0.00 38 1008.4
20260504030202 15 214 1.6 1.6 0.00 0.00 0.00 36 1008.3
20260504025702 16 214 0.0 1.6 0.00 0.00 0.00 36 1008.3
20260504024203 15 214 1.6 3.2 0.00 0.00 0.00 36 1008.2
20260504023702 16 214 1.6 3.2 0.00 0.00 0.00 36 1008.1
20260504022703 16 214 1.6 4.8 0.00 0.00 0.00 35 1008.0
20260504020703 17 221 3.2 4.8 0.00 0.00 0.00 35 1008.0
20260504014203 17 236 1.6 1.6 0.00 0.00 0.00 33 1007.9
20260504011703 17 236 1.6 3.2 0.00 0.00 0.00 34 1007.8
20260504010702 18 233 3.2 4.8 0.00 0.00 0.00 34 1007.9
20260504010203 18 248 3.2 4.8 0.00 0.00 0.00 35 1007.9
20260504005703 18 258 3.2 4.8 0.00 0.00 0.00 35 1007.9
20260504004702 19 252 3.2 8.0 0.00 0.00 0.00 35 1008.0
20260504003702 20 248 4.8 11.3 0.00 0.00 0.00 33 1007.9
20260504003203 20 258 8.0 12.9 0.00 0.00 0.00 32 1008.0
20260504002702 20 252 4.8 11.3 0.00 0.00 0.00 33 1008.0
20260504001202 21 268 9.7 12.9 0.00 0.00 0.00 27 1007.9
20260503234203 22 268 12.9 20.9 0.00 0.00 0.00 27 1007.8
20260503233703 22 284 9.7 16.1 0.00 0.00 0.00 25 1007.8
20260503233203 22 279 11.3 22.5 0.00 0.00 0.00 25 1007.8
20260503232203 22 284 16.1 25.7 0.00 0.00 0.00 24 1007.8
20260503230202 22 271 17.7 29.0 0.00 0.00 0.00 26 1007.9
20260503224203 22 256 20.9 27.4 0.00 0.00 0.00 27 1007.8
20260503223203 22 265 17.7 29.0 0.00 0.00 0.00 25 1007.8
20260503222703 22 271 16.1 32.2 0.00 0.00 0.00 27 1007.8
20260503222203 22 264 16.1 27.4 0.00 0.00 0.00 27 1007.7
20260503220703 22 268 19.3 29.0 0.00 0.00 0.00 27 1007.7
20260503214703 22 268 19.3 32.2 0.00 0.00 0.00 27 1007.7
20260503214203 22 256 20.9 29.0 0.00 0.00 0.00 29 1007.8
20260503212703 22 253 17.7 25.7 0.00 0.00 0.00 27 1007.7
20260503212203 22 284 19.3 32.2 0.00 0.00 0.00 30 1007.8
20260503211703 22 270 19.3 32.2 0.00 0.00 0.00 31 1007.9
20260503210703 23 317 11.3 25.7 0.00 0.00 0.00 27 1008.0
20260503205703 22 267 16.1 27.4 0.00 0.00 0.00 32 1008.1
20260503205202 22 287 22.5 33.8 0.00 0.00 0.00 30 1008.1
20260503203203 22 269 24.1 32.2 0.00 0.00 0.00 29 1008.2
20260503202703 22 298 11.3 24.1 0.00 0.00 0.00 30 1008.2
20260503202203 22 281 20.9 32.2 0.00 0.00 0.00 29 1008.3
20260503194203 22 276 17.7 29.0 0.00 0.00 0.00 32 1008.5
20260503193703 22 291 14.5 29.0 0.00 0.00 0.00 33 1008.5
20260503193203 22 263 19.3 27.4 0.00 0.00 0.00 35 1008.5
20260503192203 22 309 12.9 24.1 0.00 0.00 0.00 31 1008.6
20260503191703 22 295 19.3 33.8 0.00 0.00 0.00 32 1008.7
20260503191203 22 273 22.5 32.2 0.00 0.00 0.00 33 1008.7
20260503190703 22 280 20.9 29.0 0.00 0.00 0.00 32 1008.7
20260503185703 22 289 17.7 32.2 0.00 0.00 0.00 34 1008.7
20260503185202 22 315 17.7 25.7 0.00 0.00 0.00 32 1008.6
20260503184203 22 274 16.1 25.7 0.00 0.00 0.00 34 1008.6
20260503183203 22 270 16.1 24.1 0.00 0.00 0.00 39 1008.7
20260503180203 21 274 14.5 27.4 0.00 0.00 0.00 38 1009.0
20260503175703 21 294 17.7 32.2 0.00 0.00 0.00 40 1009.0
20260503175203 21 260 19.3 32.2 0.00 0.00 0.00 43 1009.1
20260503174203 21 248 19.3 29.0 0.00 0.00 0.00 44 1009.1